Wind_Speed
16 16 18 18 17 17 17 16 14 9 7 7 6 7 8 8 9 8 8 9 11 13 15 17 20 22 20 18 17 17 20 23 23 20 17 16 16 16 15 14 13 14 13 13 15 15 15 15 15 17 19 19 19 19 19 20 20 21 21 21 22 23 24 25 26 26 25 24 24 24 24 24 24 24 24 24 25 25 25 25 25 25 26 27 28 28
16 18 17 15 14 15 16 16 17 15 14 12 10 9 9 9 9 8 8 10 11 14 17 19 23 24 22 20 18 18 20 21 21 20 18 16 16 15 15 13 12 13 14 15 17 18 18 17 16 17 19 19 18 18 18 19 20 20 21 21 22 23 25 26 27 27 27 26 26 26 26 26 26 27 26 26 26 27 28 27 28 28 27 28 29 29
17 18 15 14 15 14 14 16 18 19 18 17 15 13 10 10 10 10 11 13 13 16 18 21 25 26 24 23 21 19 20 19 19 20 19 18 18 17 15 14 15 16 16 17 17 18 19 18 17 17 17 17 17 17 17 18 19 20 21 21 22 23 24 25 27 28 28 28 28 27 28 28 29 28 28 27 27 28 28 28 28 28 28 29 29 30
17 15 15 15 16 15 13 14 16 18 19 19 18 17 14 13 12 10 11 13 14 15 18 21 26 28 26 25 24 21 20 21 19 20 20 20 20 17 16 16 17 17 17 18 18 18 19 18 18 17 16 16 16 16 17 18 19 20 21 22 22 23 23 24 26 27 28 29 29 29 29 30 30 30 29 28 28 28 28 28 28 28 28 29 30 31
15 13 15 18 17 17 16 16 16 16 17 18 18 18 16 15 14 12 12 13 15 16 19 22 26 30 29 25 25 21 19 22 22 22 22 21 20 19 18 17 17 18 20 20 19 18 18 18 17 17 17 16 15 15 16 18 19 19 20 20 21 21 21 22 23 25 26 27 28 29 30 30 31 30 30 29 28 27 28 28 27 28 28 30 31 32
16 14 14 17 17 18 19 18 18 18 18 17 16 16 14 12 12 13 12 14 15 15 17 19 15 21 30 27 24 22 20 21 21 21 22 21 21 20 18 17 16 19 21 22 21 20 19 19 18 17 15 15 15 15 17 18 18 19 19 20 20 19 19 20 21 22 24 25 26 27 28 29 30 30 30 29 29 28 28 28 28 29 30 32 33 33
18 16 13 14 16 18 19 19 19 18 18 16 14 14 12 11 11 12 13 13 12 11 15 15 9 15 32 32 25 24 23 22 22 22 22 22 21 21 19 17 18 20 21 22 22 21 20 19 17 15 14 14 14 15 17 17 17 18 19 20 19 18 18 18 19 20 21 22 23 24 25 26 27 28 28 29 30 30 30 29 29 30 31 33 34 34
19 18 16 15 16 17 18 17 16 17 16 15 13 11 9 9 9 9 10 10 11 15 18 19 14 14 29 35 28 27 27 24 23 23 22 23 24 23 21 19 20 21 21 21 21 21 20 19 18 16 15 14 14 16 17 17 17 18 19 19 18 17 17 17 17 18 18 19 20 21 22 23 23 24 25 27 29 30 30 30 29 30 31 33 34 35
19 20 20 19 19 18 17 14 13 14 13 13 12 11 10 9 10 9 10 10 12 17 17 17 15 9 20 35 33 31 33 29 26 25 24 25 23 22 20 19 19 19 19 18 18 18 17 17 17 16 15 15 15 16 17 17 17 18 19 19 17 16 16 17 18 18 19 19 19 19 20 20 20 21 23 25 27 28 29 29 29 30 31 33 35 35
19 19 20 21 21 21 19 16 15 13 12 12 12 11 10 10 11 9 10 11 12 14 16 18 16 10 16 34 39 34 33 31 26 24 22 19 15 13 12 11 11 12 12 12 11 11 11 12 13 14 14 15 16 18 19 18 18 18 20 20 19 17 16 16 18 20 21 21 20 20 20 20 20 21 22 23 25 26 27 28 28 29 30 32 34 35
19 18 19 19 20 21 20 19 18 15 15 14 12 11 10 9 10 10 11 12 9 9 13 15 17 14 10 20 32 30 24 20 17 16 15 13 11 10 5 4 6 9 11 11 11 13 15 17 16 14 15 15 17 19 20 19 18 19 21 22 22 20 18 18 18 20 22 22 21 20 20 20 20 21 22 23 24 25 26 27 27 28 29 30 32 34
23 19 20 20 20 21 20 20 18 17 18 16 14 12 8 6 6 8 10 8 5 5 6 7 12 16 13 12 17 18 15 11 9 11 15 15 16 12 6 8 10 13 14 13 13 14 17 19 17 14 15 17 19 19 19 18 18 20 21 22 23 23 21 21 20 20 21 21 20 20 19 20 20 21 22 23 24 25 26 26 26 27 28 28 30 32
27 26 24 22 22 23 21 19 18 17 18 17 15 12 7 2 2 4 5 3 7 9 7 6 7 15 27 28 24 24 24 17 11 14 18 19 20 15 11 13 14 15 14 12 11 12 12 14 15 15 17 20 20 17 17 17 18 20 21 22 24 25 24 23 22 20 20 20 19 19 19 19 20 21 22 23 24 25 26 27 27 28 28 28 29 30
23 24 28 28 25 24 23 21 19 18 17 17 18 16 11 5 2 3 4 1 7 11 9 9 9 16 29 30 20 17 18 17 17 20 21 22 21 16 15 16 17 16 14 13 13 12 12 13 15 17 19 21 19 17 17 19 20 20 21 22 24 26 26 25 23 21 19 19 19 19 19 20 20 21 22 22 23 24 26 27 28 29 29 29 30 31
20 17 25 29 26 26 26 25 21 17 16 17 18 18 18 16 9 4 3 4 5 5 7 10 9 10 14 11 6 3 4 9 12 11 11 13 15 16 19 21 21 19 16 15 15 13 15 17 18 19 20 21 20 20 20 20 20 20 21 22 25 27 27 26 24 21 19 19 19 19 20 20 21 21 21 21 21 22 24 25 26 28 29 30 31 32
23 19 20 20 22 24 24 23 23 20 18 16 17 20 23 23 19 8 4 8 5 3 4 11 14 18 19 18 16 10 9 12 14 13 11 12 14 15 17 18 18 18 16 17 15 14 16 18 20 22 21 21 21 22 21 20 20 21 21 24 27 28 29 27 24 20 19 19 19 19 19 20 20 20 21 21 22 23 24 25 26 26 27 29 30 31
20 19 18 16 17 19 18 18 21 23 20 17 21 28 25 21 19 13 8 9 6 4 9 13 22 31 30 29 29 25 23 20 20 21 17 16 17 15 17 20 21 19 17 16 14 13 16 18 21 22 21 20 20 20 20 20 21 22 23 26 29 31 30 28 24 20 19 20 19 18 18 19 20 20 20 21 21 23 24 26 27 27 27 28 28 30
20 15 17 20 19 19 19 18 20 23 23 21 24 28 24 18 17 15 8 3 2 4 8 14 24 30 24 19 16 11 10 6 8 13 14 14 14 15 20 23 22 19 17 14 13 16 20 22 22 22 20 19 18 18 18 19 21 22 24 28 30 32 32 29 24 21 21 20 19 18 18 18 19 19 20 20 21 23 24 26 27 28 29 29 29 29
22 16 16 20 21 20 20 21 22 24 26 28 26 22 19 15 13 15 10 2 2 2 6 13 20 27 32 27 18 14 14 12 16 20 19 15 14 17 20 20 20 19 15 14 18 24 26 25 23 20 19 19 19 20 21 22 24 25 26 29 30 32 32 29 24 22 21 20 19 18 18 18 19 20 21 23 23 24 25 25 26 28 29 30 31 31
23 19 16 20 22 21 22 26 29 29 29 29 27 22 21 17 12 17 18 10 4 3 4 10 11 22 37 36 27 25 25 22 19 16 13 14 17 19 20 22 21 17 14 18 27 31 28 25 23 21 21 22 22 24 26 29 29 26 25 28 31 31 31 27 23 23 22 21 19 18 18 18 19 20 22 23 24 25 26 27 28 29 30 31 31 32
26 22 19 19 22 23 26 29 30 30 28 29 29 26 27 24 16 15 20 20 14 5 3 3 7 24 36 26 16 12 9 9 7 8 13 17 19 20 20 19 15 14 18 25 29 27 24 25 26 24 23 25 27 29 32 32 30 26 26 28 31 31 28 25 23 24 22 20 19 18 19 20 20 21 23 24 26 28 29 30 31 32 33 33 32 32
31 27 22 20 22 27 30 28 26 27 27 28 30 30 31 31 25 14 10 20 24 15 9 4 7 33 42 28 21 16 10 10 4 9 16 18 20 21 19 15 14 20 25 24 22 21 22 25 26 25 27 29 31 31 30 28 26 25 27 29 30 29 27 25 24 24 23 21 21 21 23 25 26 28 29 30 31 31 32 33 34 36 37 35 34 32
33 31 27 25 27 28 26 24 25 26 27 29 31 32 32 33 35 26 12 14 21 22 23 13 10 38 48 33 27 22 15 14 9 10 14 16 18 19 18 18 20 23 22 18 19 21 23 26 27 28 29 28 26 25 24 25 26 27 28 29 30 29 26 26 26 26 25 24 25 26 29 32 34 35 36 36 35 35 35 36 38 40 41 39 36 33
32 31 29 26 25 25 23 24 27 27 28 32 35 36 35 33 36 34 25 22 19 21 27 14 9 39 48 34 27 20 15 18 17 16 17 18 22 23 24 26 22 21 23 24 26 28 29 30 30 30 28 24 21 22 25 28 28 28 28 28 29 29 27 28 28 29 30 29 30 31 34 37 39 40 40 40 40 39 39 41 42 44 44 41 38 34
29 30 29 19 10 12 15 17 23 28 30 33 34 35 36 35 34 32 31 27 18 21 28 15 13 41 49 37 33 28 22 22 21 24 27 28 30 30 29 30 27 29 33 33 32 32 32 31 29 28 27 25 24 24 26 28 27 26 26 27 29 30 30 31 32 33 34 34 35 36 38 42 43 43 43 44 44 43 43 45 46 46 46 43 40 37
27 28 31 23 12 10 10 12 20 29 32 33 35 34 35 35 34 33 32 26 21 29 34 24 26 47 53 43 41 38 33 31 28 29 30 31 34 35 35 36 36 36 34 31 30 30 30 28 27 29 31 29 25 25 26 28 26 26 25 26 30 31 32 34 35 37 38 39 39 39 41 45 46 46 47 47 47 47 48 49 49 49 47 44 41 39
27 27 29 30 28 25 20 17 20 25 28 32 35 35 36 35 35 35 32 31 33 36 36 37 41 51 56 52 49 47 45 43 40 36 35 38 42 42 41 40 40 39 36 34 33 33 32 31 31 32 32 29 27 26 27 29 28 28 27 27 29 32 34 36 38 40 42 42 42 41 44 48 49 50 51 51 50 51 51 51 51 50 49 46 43 41
26 26 28 31 32 31 24 16 15 19 22 26 30 31 34 35 36 36 36 39 40 32 32 44 48 48 54 56 52 51 49 47 46 44 42 44 44 43 44 43 42 41 39 38 37 36 35 34 33 32 31 29 27 26 28 31 31 30 30 30 32 34 36 37 39 41 42 44 44 44 46 49 51 53 53 53 53 53 53 53 52 51 50 47 45 42
25 26 28 30 31 33 27 18 16 17 17 21 25 28 31 33 35 39 41 44 44 36 37 47 46 44 52 56 53 51 48 47 49 48 46 47 46 45 44 42 40 41 40 38 36 34 32 31 31 31 30 27 25 24 27 31 33 34 34 34 35 37 39 40 41 42 42 43 43 43 45 48 51 54 55 55 55 55 55 54 53 52 50 47 45 43
27 27 29 28 29 32 31 26 23 20 17 19 22 22 24 27 31 37 40 43 43 43 45 48 46 48 52 53 53 51 48 48 49 47 47 47 46 44 41 40 40 40 38 35 32 29 27 26 27 27 25 23 23 24 26 29 33 36 38 39 40 41 41 43 44 44 44 44 42 41 44 48 51 54 56 57 57 57 57 56 54 51 49 47 45 42
30 32 32 31 30 33 34 34 32 30 28 25 23 21 20 23 28 32 34 35 35 39 44 46 49 55 54 49 49 48 46 45 45 45 44 44 42 42 40 39 38 37 35 33 30 27 25 24 24 23 21 22 24 26 27 27 29 32 35 37 40 43 45 47 48 48 47 46 44 43 45 48 53 56 58 59 60 59 58 55 52 50 47 46 44 42
30 29 29 28 27 32 38 37 36 39 38 36 36 35 32 32 33 33 32 31 32 34 38 39 44 51 50 44 43 46 47 45 44 44 43 41 40 39 38 37 35 34 32 30 27 27 26 25 24 24 24 26 27 27 27 28 29 29 29 30 32 35 39 44 47 50 51 51 50 50 52 54 57 59 59 58 58 56 54 51 49 48 46 45 44 42
30 28 29 26 22 29 37 34 32 32 25 27 40 47 45 44 43 40 39 38 37 38 39 40 43 46 46 44 44 46 46 44 42 41 40 40 39 38 37 35 32 29 27 26 26 28 29 28 26 26 28 29 29 29 28 29 30 29 29 28 28 29 30 33 36 40 44 47 49 52 53 54 56 55 53 52 50 49 48 47 47 46 46 45 44 43
31 30 31 28 23 27 33 29 23 17 12 24 41 44 42 44 45 46 48 46 44 44 45 46 46 46 46 46 46 45 42 39 37 37 37 38 39 38 35 32 30 27 25 25 27 27 27 27 26 28 29 30 30 31 30 30 30 30 30 30 29 29 29 29 30 31 33 35 38 41 43 45 46 45 44 43 43 43 44 45 45 45 45 45 45 43
30 30 29 27 25 27 27 20 11 8 18 36 43 39 39 41 39 39 42 42 41 41 42 43 43 43 42 41 41 40 39 37 36 36 38 39 39 36 32 29 30 29 27 26 27 27 27 28 29 29 30 30 31 31 30 30 31 32 32 33 33 33 32 32 32 32 31 32 33 34 35 37 38 38 39 39 40 41 42 43 43 43 44 44 44 44
27 28 28 28 27 24 20 16 10 10 21 33 36 37 40 40 36 34 35 37 37 35 36 37 36 35 34 34 35 37 37 37 37 38 40 41 39 34 30 31 32 31 30 29 29 28 28 29 30 31 32 33 32 32 32 33 33 34 35 36 36 36 36 36 36 35 34 33 34 35 35 36 37 38 38 39 39 40 40 40 41 42 42 43 43 43
27 27 27 27 26 23 20 20 21 19 21 29 35 37 36 34 32 30 29 32 33 29 29 31 31 31 32 33 36 37 38 38 39 40 41 40 37 33 31 31 32 30 30 31 31 30 31 31 33 34 36 37 36 37 38 38 37 38 38 39 39 39 38 38 38 37 37 36 36 37 38 38 38 38 38 38 38 38 38 39 40 40 41 42 42 42
32 30 28 24 22 23 22 19 15 12 16 31 40 38 34 31 28 25 25 30 31 30 32 33 33 34 35 35 37 39 38 38 39 40 40 38 34 32 30 30 31 32 33 34 35 36 35 36 38 39 40 41 41 41 42 42 41 41 40 40 40 40 40 39 39 39 39 38 38 38 37 36 36 35 35 36 36 37 37 38 38 39 40 40 41 41
34 34 33 30 25 24 23 17 11 10 18 33 39 35 32 31 27 22 20 24 29 31 32 33 33 33 34 34 35 36 36 37 39 39 38 36 34 34 34 33 35 37 38 39 40 41 41 42 42 43 43 44 44 43 43 43 43 43 42 41 41 41 41 40 40 40 40 39 38 38 37 36 36 37 37 37 37 37 38 38 39 40 41 42 42 43
31 31 33 34 33 31 29 23 18 20 28 37 40 35 31 28 26 18 12 17 27 30 29 30 31 30 32 33 34 34 35 37 39 39 38 39 38 37 38 38 39 40 41 41 41 42 43 44 45 46 47 46 46 44 43 44 44 43 42 41 41 41 40 40 40 41 40 40 40 39 39 39 39 40 40 40 40 40 41 41 42 43 44 44 45 45
29 31 32 35 37 37 35 29 26 29 37 43 44 42 36 29 23 19 17 21 26 26 25 27 25 22 24 27 28 30 32 34 36 37 38 38 38 38 38 38 39 40 41 42 42 43 43 44 45 47 47 46 45 45 45 45 43 41 40 40 41 40 40 40 40 40 40 41 41 41 41 42 42 42 41 41 42 42 43 43 44 44 45 45 44 44
28 28 29 34 36 36 38 34 28 30 40 45 45 45 42 32 23 23 26 27 27 26 28 30 27 23 21 23 24 26 28 30 32 34 35 35 36 37 37 37 38 40 40 41 42 43 45 45 45 45 44 44 45 46 46 44 42 40 39 40 41 41 40 40 40 40 40 40 41 42 43 43 44 43 42 42 43 43 43 44 44 44 44 43 43 42
29 26 27 33 34 31 31 26 18 22 36 44 42 39 36 28 22 21 23 24 26 28 30 32 31 27 24 23 25 28 29 31 31 31 32 32 33 35 37 39 41 42 43 43 44 45 47 47 45 44 44 45 46 47 46 44 42 41 40 40 41 42 42 42 42 41 42 42 43 43 43 43 44 44 44 44 44 44 44 44 44 43 42 42 41 41
25 27 27 31 31 28 27 25 23 26 34 36 33 28 24 21 20 19 19 21 22 22 24 26 28 29 29 28 28 29 31 32 32 32 32 33 35 37 39 40 42 43 44 45 45 46 47 46 45 45 44 44 45 45 44 43 42 42 42 42 43 44 44 44 44 45 45 46 45 43 42 43 44 44 45 45 45 45 44 43 43 42 41 40 40 40
26 29 28 28 26 24 24 26 26 28 29 27 27 25 22 21 21 21 23 25 25 26 28 30 31 32 34 35 34 34 35 36 36 37 37 37 38 38 38 38 38 39 39 39 39 40 41 42 42 42 41 41 42 43 43 43 42 42 42 43 44 46 47 48 48 49 49 47 45 43 42 43 43 44 44 44 44 43 43 42 41 40 39 39 39 39
32 32 31 30 29 27 27 27 27 27 27 26 27 27 27 28 29 32 34 33 31 30 31 31 30 29 29 30 32 35 36 38 40 41 41 41 41 41 40 40 39 39 40 40 40 40 40 39 39 40 40 40 41 43 44 44 43 43 42 43 44 46 47 48 49 48 46 43 41 41 40 41 42 42 43 43 42 43 42 42 40 39 38 38 37 37
31 31 31 30 31 31 33 35 36 37 37 37 36 36 36 35 34 33 31 29 27 27 27 27 28 27 27 28 31 34 36 38 39 40 42 43 43 42 42 41 41 41 42 42 43 43 42 41 41 42 42 42 42 44 45 45 45 45 44 44 43 43 43 43 42 41 39 39 39 39 39 39 40 40 41 42 42 43 43 42 41 39 37 35 33 31
27 28 30 31 30 31 33 33 33 33 34 36 37 37 35 34 32 30 29 28 29 30 31 32 33 33 33 34 33 34 36 35 35 37 39 41 41 41 40 41 41 42 42 42 43 43 44 44 45 45 46 45 45 45 45 46 47 48 47 46 44 43 42 41 39 38 37 38 39 39 38 38 39 39 40 41 42 43 43 42 40 37 34 31 28 27
29 29 31 32 33 35 35 34 33 32 31 30 31 33 34 34 35 35 35 34 35 38 39 40 40 39 38 37 36 36 37 36 36 37 38 39 40 41 41 42 43 43 43 43 43 43 44 46 47 47 48 47 47 47 46 47 49 49 48 47 45 44 43 42 41 40 39 39 39 38 38 38 38 38 38 40 41 42 40 38 36 33 30 27 25 25
36 35 35 35 36 36 37 36 35 35 35 34 35 37 38 38 39 40 40 40 41 43 44 45 45 44 43 42 41 42 43 43 43 44 45 45 46 45 45 45 46 46 45 44 43 44 45 45 46 47 48 47 48 49 49 49 49 50 49 47 45 43 43 42 42 41 41 41 40 38 38 38 37 37 38 39 40 40 38 36 33 31 29 27 26 26
38 39 38 38 38 38 38 37 36 36 37 37 37 37 39 40 41 42 43 43 44 45 46 47 48 48 48 47 46 45 46 46 46 47 48 49 48 48 47 47 47 47 46 45 45 45 45 44 45 46 46 46 46 48 49 49 49 48 48 47 45 44 43 42 42 41 41 41 40 39 38 37 36 37 38 38 38 38 37 36 35 33 31 29 28 27
Wind_Direction
207 208 211 212 212 211 208 206 199 193 203 210 201 199 203 211 223 236 251 262 268 271 275 278 276 271 266 261 258 258 257 261 267 267 263 260 262 265 269 274 277 285 293 290 285 284 283 279 276 275 276 279 284 287 288 289 291 291 290 291 289 285 281 280 280 281 282 283 283 281 281 280 279 277 277 279 281 282 282 281 278 276 274 273 273 274
211 212 214 215 215 214 207 200 201 205 213 218 212 199 195 204 218 231 245 257 266 270 273 277 276 269 267 266 262 261 258 257 262 267 268 266 266 268 270 274 277 281 285 286 288 288 287 284 277 272 273 278 286 290 290 291 292 294 296 297 293 289 286 285 283 282 283 284 284 282 280 278 276 276 277 277 278 278 279 280 281 280 279 277 276 275
212 215 213 208 209 209 202 202 207 209 215 222 225 220 212 215 228 236 248 263 271 274 275 279 277 269 267 269 265 263 263 261 263 264 264 265 265 269 276 282 283 283 284 285 286 286 285 284 281 278 276 279 285 290 293 295 296 298 301 302 298 294 292 289 285 284 284 283 281 279 278 277 277 277 278 278 277 277 278 280 282 283 282 281 279 277
213 215 209 203 205 205 202 207 213 216 221 226 232 235 235 237 245 249 255 265 272 278 282 284 282 273 267 268 267 266 266 264 263 260 257 259 261 267 273 276 279 282 285 285 283 282 282 282 282 283 283 283 287 290 294 295 297 300 304 305 302 299 296 292 289 287 285 282 280 279 277 276 278 279 280 281 281 281 281 282 283 283 282 281 279 277
217 212 206 204 204 204 204 210 216 219 224 231 237 241 245 249 252 254 257 265 274 283 286 289 290 280 273 272 271 269 265 262 263 261 258 260 264 268 270 274 281 283 282 281 281 281 280 280 281 283 285 286 287 287 289 292 297 302 306 307 305 301 297 293 291 288 286 284 282 281 278 278 279 281 282 283 284 284 282 281 280 279 278 276 276 276
218 212 209 207 207 209 210 213 215 218 226 235 242 242 244 249 250 254 262 273 283 286 285 294 302 284 276 274 272 273 268 265 266 262 259 261 264 267 270 275 276 275 275 277 280 280 279 281 281 282 282 280 279 280 284 290 297 304 308 309 308 304 298 293 290 288 285 284 283 281 280 280 281 281 282 284 284 283 281 279 277 275 275 275 276 276
219 213 209 207 211 217 220 219 219 222 229 236 242 242 240 244 249 258 267 274 282 282 282 289 293 286 283 275 268 272 271 269 270 266 262 262 267 271 273 275 271 269 271 276 279 280 280 280 279 280 278 272 272 276 282 288 295 301 306 308 308 304 299 294 291 289 287 285 283 282 281 280 279 279 281 282 281 280 279 278 277 276 275 275 276 278
217 210 207 207 210 220 224 222 222 222 227 233 237 239 237 242 250 261 272 272 272 276 280 280 276 282 282 275 271 277 276 273 271 266 265 269 274 278 277 275 273 273 275 275 275 275 275 276 277 277 273 269 270 275 280 287 291 297 303 306 305 302 299 296 293 291 290 288 285 283 280 279 278 278 278 278 278 278 278 278 277 277 275 275 277 278
219 214 213 215 217 224 227 224 222 219 224 232 235 238 237 243 253 262 273 275 279 283 279 273 272 268 272 274 277 283 284 283 278 272 275 279 279 280 280 277 274 274 275 274 270 268 267 269 272 272 269 267 270 275 280 284 288 295 302 306 307 303 298 295 295 294 292 290 287 284 282 280 278 276 275 274 274 275 276 276 276 276 276 276 278 279
224 220 219 223 225 231 234 232 232 228 230 236 236 240 239 243 256 264 272 275 282 282 270 268 271 263 273 277 276 281 287 290 287 286 289 287 286 292 289 280 278 279 275 270 265 263 265 271 275 271 266 266 270 275 279 281 287 295 301 306 310 308 303 300 299 297 294 289 287 286 284 282 279 276 275 274 274 275 275 275 276 276 277 277 277 278
224 221 220 224 228 234 237 238 239 236 237 240 235 233 234 240 255 264 270 276 285 277 264 268 271 266 273 281 279 283 292 293 287 289 290 285 298 317 307 285 300 292 277 269 269 270 274 279 279 271 266 272 279 279 278 280 287 295 301 305 309 310 309 308 307 303 298 291 287 287 286 285 283 281 280 280 280 279 278 278 277 277 276 274 274 275
223 223 224 226 229 233 236 236 235 234 232 232 229 224 227 243 265 271 266 261 260 266 269 274 274 264 244 250 272 279 285 289 283 287 289 291 304 313 285 276 291 283 276 279 285 284 279 274 271 264 266 282 291 284 277 279 287 295 299 302 306 309 309 310 312 310 302 296 291 289 288 288 287 286 287 287 286 284 283 282 280 278 276 274 273 272
226 228 230 231 232 232 233 228 219 219 221 222 225 214 202 231 321 269 252 227 236 249 265 265 260 255 253 259 266 268 271 273 268 278 283 286 296 297 270 268 280 277 278 295 305 299 283 268 261 260 272 288 294 285 277 279 287 294 297 299 303 307 309 311 314 312 304 297 293 292 292 292 291 291 291 291 291 289 287 286 284 281 279 277 275 272
224 229 229 228 229 229 230 225 214 213 217 223 228 217 198 173 104 246 251 295 261 254 247 237 236 254 265 273 276 270 269 264 261 268 270 271 280 279 262 265 274 272 280 310 314 292 273 266 266 273 282 288 286 282 280 282 288 296 298 298 302 305 308 312 315 312 302 295 293 294 294 293 293 293 293 294 294 293 291 289 288 285 283 281 278 275
220 226 228 227 228 232 234 234 232 233 237 239 240 234 226 216 206 211 204 205 253 263 218 207 220 250 262 274 288 296 259 255 266 267 259 271 278 269 264 270 274 270 279 306 308 284 274 272 275 284 286 282 281 285 284 282 289 296 297 298 301 304 308 312 314 308 295 290 291 294 294 294 294 293 295 298 298 298 298 296 294 291 288 285 282 279
224 233 238 234 234 238 239 240 241 238 238 240 232 229 231 230 229 224 211 227 244 327 232 213 233 252 257 263 266 267 261 262 271 266 259 274 276 272 274 276 276 273 280 294 294 285 281 276 277 282 282 279 281 284 282 282 291 297 298 299 300 304 307 310 310 302 289 285 286 290 292 292 291 291 293 297 300 302 303 302 300 298 295 291 287 284
221 232 237 234 230 233 233 234 236 232 229 225 218 221 225 229 230 226 240 252 248 281 262 239 250 260 266 272 272 268 269 269 265 259 256 257 260 268 273 271 271 276 283 289 293 296 291 285 284 283 282 281 280 278 279 286 295 298 296 297 298 302 305 305 304 295 282 278 279 284 288 289 288 289 291 296 301 305 307 306 303 300 297 295 292 289
225 227 228 228 226 225 221 220 224 228 228 221 220 225 227 227 226 220 233 277 219 258 268 247 255 265 269 275 277 254 230 228 246 256 266 268 258 251 254 260 267 273 279 284 294 306 304 297 292 285 280 277 275 279 287 295 298 295 293 293 294 297 299 299 297 287 275 272 274 280 284 286 286 287 291 297 301 306 309 310 308 304 299 295 294 292
229 228 224 222 223 220 216 215 215 220 223 224 227 228 221 219 213 205 210 249 198 218 278 260 259 268 264 258 258 247 238 260 278 277 279 270 244 234 241 251 257 262 273 288 301 308 307 299 289 282 278 275 278 289 298 304 302 294 290 289 290 291 292 294 290 278 269 268 273 279 282 284 286 288 294 298 302 305 309 311 311 311 307 301 296 293
224 228 226 221 220 215 210 210 213 215 215 219 226 226 224 224 209 206 211 214 202 173 257 272 268 266 265 265 271 275 275 280 280 274 260 228 220 233 238 239 244 255 277 300 306 307 302 291 280 277 279 278 282 290 297 301 300 292 286 284 285 287 289 289 281 270 266 270 276 281 283 285 286 290 294 299 303 307 310 312 313 313 314 310 303 295
223 225 228 222 214 209 209 213 219 222 220 220 222 220 223 222 209 214 221 220 221 204 200 251 272 264 266 273 281 282 297 300 271 231 224 216 224 238 234 233 252 276 288 298 301 297 288 281 277 275 275 275 280 287 292 295 295 288 281 279 280 284 286 281 270 265 267 273 278 281 282 284 286 290 295 300 305 308 311 313 315 315 315 314 310 300
223 224 228 222 214 216 222 225 229 233 235 237 236 232 233 228 215 210 217 219 221 225 225 203 279 270 268 270 268 263 280 293 251 197 214 215 219 223 216 223 263 284 290 295 290 278 272 274 273 271 274 282 288 291 292 289 284 279 278 278 279 282 280 269 261 264 269 273 277 280 283 288 292 296 299 303 307 310 313 315 317 316 315 314 312 305
225 225 228 230 231 236 237 231 228 230 234 238 241 241 241 236 225 217 213 220 216 223 239 236 263 268 267 267 267 266 264 255 228 201 208 209 215 221 227 247 269 281 286 283 272 270 271 270 270 276 286 297 298 291 285 280 277 279 281 280 279 280 272 260 258 264 269 273 279 284 289 293 297 299 301 304 307 310 313 315 316 315 314 313 312 307
221 223 226 231 237 241 238 231 229 228 228 231 234 236 234 232 232 230 233 239 224 220 233 226 245 262 263 265 263 261 251 240 235 235 237 243 255 262 268 274 278 280 280 282 283 285 284 282 286 291 299 305 296 281 276 277 280 284 283 278 278 277 266 255 258 265 269 275 282 286 291 294 297 298 300 301 304 308 311 312 312 313 312 311 310 308
216 217 219 218 226 238 234 227 224 223 224 228 232 235 235 235 235 233 234 238 235 232 232 215 234 255 260 264 264 263 261 255 254 260 264 270 275 278 282 284 285 287 290 294 294 293 294 296 297 300 305 305 294 280 273 275 279 280 277 274 276 273 261 256 260 267 272 279 284 288 292 293 295 298 299 299 301 304 306 307 308 309 310 309 308 308
215 215 215 211 201 212 222 218 222 224 223 227 231 233 236 237 234 232 232 229 233 242 237 225 239 254 259 263 265 267 268 266 268 273 276 279 282 284 286 287 290 293 295 296 295 296 298 296 295 302 308 306 295 282 273 272 273 270 266 268 272 268 260 259 264 270 276 281 285 290 292 292 295 297 298 298 299 301 303 304 306 307 308 307 307 308
213 215 218 221 222 226 233 235 237 235 227 227 234 235 236 237 236 235 231 227 233 240 240 238 245 256 262 264 264 267 269 270 273 276 277 280 283 285 286 289 293 294 294 295 296 297 296 296 300 305 305 299 289 278 268 264 265 263 258 258 261 261 261 263 267 272 277 281 284 288 290 291 293 294 295 296 298 299 301 303 304 305 306 306 305 306
209 213 216 224 229 232 237 242 242 237 228 228 236 238 236 236 236 233 230 234 238 237 242 249 249 253 262 267 268 269 272 274 277 279 280 282 283 284 287 291 294 295 296 297 296 296 298 302 305 302 297 291 283 275 265 259 256 255 252 249 249 252 255 261 266 270 275 278 281 284 285 287 289 290 291 293 295 297 299 301 302 302 303 303 303 303
210 215 216 222 229 232 232 232 228 221 213 215 225 232 234 234 233 233 236 242 241 234 241 253 253 252 261 268 270 271 274 276 278 280 282 283 284 286 290 294 295 297 297 296 298 301 304 305 303 299 295 287 278 272 265 257 253 251 249 248 247 248 251 254 258 262 267 272 276 279 280 282 283 285 287 290 293 295 297 298 299 299 299 300 300 300
223 227 225 226 234 236 232 228 226 223 218 213 214 220 228 229 230 234 238 242 242 241 247 254 255 255 260 265 269 273 275 276 278 282 284 286 289 292 294 295 295 296 296 298 303 305 302 302 303 300 292 281 274 271 266 261 258 255 252 250 249 250 251 253 254 256 259 263 268 273 275 276 278 281 285 289 292 294 295 296 296 295 295 296 296 297
235 238 239 241 243 243 241 238 237 239 242 240 232 226 225 225 226 231 236 239 242 244 247 250 255 258 260 263 268 275 278 279 282 285 287 289 292 294 295 293 294 296 297 300 301 295 291 298 302 297 287 277 274 274 273 274 273 270 266 263 260 258 258 257 257 257 258 260 263 267 269 271 274 280 286 290 292 292 293 294 293 292 292 292 293 294
235 237 241 241 239 243 247 246 245 248 250 251 249 243 236 231 230 232 237 241 243 244 247 250 253 257 263 269 274 278 280 282 284 285 286 288 289 292 295 296 297 298 297 297 293 286 285 292 293 290 284 279 279 282 284 285 286 286 285 282 278 274 270 267 264 262 262 264 266 268 270 273 276 281 285 287 288 290 291 291 290 289 290 290 290 290
236 235 236 233 230 242 250 250 250 251 252 251 250 247 244 242 240 241 242 244 246 249 253 255 256 261 271 277 278 279 280 283 286 287 287 288 290 293 297 297 296 295 293 294 293 289 289 288 284 281 281 281 283 286 288 289 289 290 289 287 285 283 282 280 276 272 269 269 270 272 274 276 278 280 282 283 284 286 287 287 287 287 287 287 287 288
235 234 235 234 231 243 252 254 251 244 236 248 252 252 252 252 250 249 250 250 251 254 258 260 263 268 274 277 278 281 284 287 291 290 288 289 292 296 297 294 291 292 294 293 289 287 287 282 276 275 278 282 284 286 289 289 289 290 291 290 289 286 285 284 283 281 279 277 276 276 277 278 280 282 283 283 284 285 285 285 286 286 286 286 287 288
229 229 232 232 232 241 248 247 237 227 241 252 256 257 257 258 258 257 258 258 258 258 260 261 264 267 269 273 277 281 285 288 290 286 284 287 292 296 295 289 283 285 288 284 279 278 280 278 275 275 277 281 285 289 291 290 289 291 292 293 293 291 289 287 285 284 282 281 280 279 279 281 282 283 283 283 283 283 284 284 284 284 284 284 285 286
227 229 229 227 229 234 234 224 220 242 252 255 258 258 257 257 258 258 260 262 262 263 264 265 267 269 271 274 276 278 282 285 284 282 282 284 287 289 288 283 279 278 278 277 277 278 278 278 278 278 280 284 288 292 293 293 292 292 293 294 294 293 291 289 288 286 283 281 279 279 279 280 280 280 280 281 281 281 281 281 281 281 281 281 283 284
232 233 230 226 224 225 224 227 237 247 253 254 256 257 257 256 256 259 264 268 270 272 272 272 274 274 273 273 273 274 275 276 275 276 278 279 280 280 279 277 277 278 278 279 281 282 281 281 282 283 284 287 289 291 293 293 292 292 292 292 292 292 290 288 287 285 282 280 278 278 278 278 278 279 279 279 280 280 279 278 278 277 278 279 279 280
237 238 237 234 231 230 231 237 243 240 246 251 253 256 260 260 263 268 270 271 272 272 271 271 272 271 269 269 269 269 270 270 269 271 275 278 278 276 273 271 273 278 281 283 283 283 283 284 285 287 288 290 291 292 293 294 294 294 293 292 290 289 288 286 284 281 279 278 277 276 276 276 277 278 279 280 280 280 279 278 277 277 277 277 278 279
240 241 242 240 238 235 230 229 233 234 247 254 257 262 265 266 270 272 263 262 267 269 268 267 265 264 264 264 266 268 269 271 270 271 275 278 277 276 275 273 273 277 280 283 285 286 287 288 289 290 291 292 293 294 294 294 294 295 295 293 289 287 285 282 279 277 276 276 274 274 274 275 277 278 279 280 280 279 278 277 277 277 277 278 278 279
235 237 238 236 236 236 235 236 242 246 251 257 261 264 265 268 272 267 245 251 263 265 266 265 260 257 259 260 262 264 265 266 268 269 272 275 275 276 278 279 279 281 282 284 285 286 288 289 290 291 292 293 294 294 293 294 295 295 294 291 288 285 282 279 277 275 275 274 273 274 275 277 279 279 279 278 277 277 276 276 277 277 278 279 279 280
224 228 230 232 234 236 238 241 247 250 254 258 262 264 266 266 262 249 240 251 260 261 264 265 258 253 255 255 255 256 256 258 263 267 269 272 274 276 278 280 281 282 284 285 287 287 288 289 289 290 291 292 292 292 293 294 294 294 291 288 286 282 279 277 276 275 274 274 275 277 279 281 282 281 279 278 277 276 276 277 278 278 279 279 280 279
218 221 223 228 232 235 236 239 245 253 257 258 261 263 265 262 253 248 253 256 255 256 259 261 260 257 253 249 249 251 251 254 258 262 264 267 271 273 276 277 278 279 280 282 283 285 286 287 288 289 289 289 290 291 293 293 292 291 288 286 283 280 277 277 276 275 276 278 280 282 282 282 282 281 280 279 279 278 278 278 279 279 279 279 279 278
223 219 217 223 228 229 231 233 237 250 255 257 259 261 262 260 254 252 253 250 246 247 249 252 258 264 262 254 251 251 251 252 253 254 258 262 267 272 274 277 279 279 279 280 281 282 284 285 285 285 286 287 289 290 291 291 290 288 285 283 281 278 277 277 276 277 279 281 283 283 282 281 280 280 280 280 280 280 280 280 280 280 279 278 277 276
224 219 217 223 226 223 221 223 230 242 249 254 257 258 257 256 252 243 238 239 241 243 246 252 263 274 279 277 271 265 263 262 261 262 264 266 269 273 275 277 278 279 279 282 283 283 283 283 283 284 285 286 287 288 289 290 289 286 284 282 280 278 278 277 277 279 281 282 283 282 281 280 280 280 280 280 281 281 282 282 281 280 278 276 275 274
227 225 225 227 226 224 226 231 238 245 248 250 254 257 257 258 259 261 265 271 274 275 276 278 281 284 287 288 287 284 282 281 279 279 279 278 277 278 279 279 278 279 281 285 287 286 286 285 285 285 285 285 286 288 289 289 289 287 285 283 280 279 278 278 279 280 281 282 282 282 281 281 281 281 282 282 282 283 284 283 282 279 276 274 272 271
233 233 237 238 236 236 240 242 245 249 252 254 256 260 265 270 274 278 281 284 285 284 284 285 286 285 286 287 288 289 289 289 289 287 287 287 285 284 283 282 281 281 283 285 287 289 289 289 290 290 289 287 288 289 290 290 290 289 288 287 285 283 281 281 281 281 281 281 281 282 282 283 283 283 283 283 282 283 283 282 280 277 274 272 270 268
236 235 238 240 240 240 243 245 248 251 254 256 259 263 269 274 277 278 278 278 278 278 279 279 280 282 284 285 287 288 289 290 289 288 288 288 288 287 287 286 286 285 285 285 287 287 288 288 291 293 294 293 291 290 290 291 291 291 290 289 287 286 285 284 283 281 281 280 281 282 283 284 285 285 285 284 283 282 282 280 278 275 271 268 265 262
235 235 235 235 235 238 241 244 247 249 249 252 256 260 265 268 270 273 275 276 276 276 275 275 276 278 280 282 284 285 286 286 285 285 286 286 287 287 287 287 287 287 287 287 287 287 287 287 289 291 293 293 292 291 291 291 292 293 292 291 289 287 287 286 283 282 282 281 281 282 283 285 286 287 288 288 285 283 280 277 272 267 262 257 252 250
234 233 235 237 238 240 244 247 248 248 247 248 251 255 258 261 265 271 275 277 277 278 277 277 277 278 278 279 278 278 280 280 281 282 283 284 284 285 285 286 286 286 286 286 286 286 286 287 288 289 290 290 289 289 289 290 291 292 293 293 291 288 286 283 281 282 282 280 280 282 284 285 286 288 289 288 284 279 273 268 263 257 251 247 247 250
238 237 240 242 243 246 250 253 253 252 252 253 254 255 257 259 263 267 270 272 274 276 277 277 278 279 280 280 280 279 279 278 278 279 280 281 281 282 282 282 283 283 283 283 283 283 283 284 285 286 287 287 286 286 287 287 288 290 291 291 290 288 284 281 279 279 279 279 280 282 283 285 288 289 288 285 281 275 269 266 262 257 252 253 256 258
242 243 244 244 246 249 253 256 256 257 259 260 261 261 262 263 265 268 271 273 274 276 277 279 279 280 281 281 282 283 282 281 280 279 279 279 279 279 278 278 279 280 280 279 279 280 280 280 280 282 282 282 282 282 283 283 285 287 289 289 288 286 283 280 278 278 279 279 280 281 283 286 288 288 286 282 278 274 271 268 263 257 255 257 260 260
Height
3149 3150 3151 3152 3155 3156 3158 3160 3161 3162 3163 3164 3164 3165 3165 3165 3165 3165 3165 3165 3165 3165 3164 3164 3163 3162 3163 3166 3167 3169 3168 3167 3167 3169 3170 3171 3171 3172 3172 3173 3173 3173 3174 3174 3174 3175 3175 3175 3175 3175 3174 3174 3174 3175 3175 3175 3175 3175 3175 3175 3175 3175 3174 3174 3174 3174 3175 3175 3176 3175 3176 3176 3177 3177 3177 3177 3176 3176 3177 3177 3177 3178 3177 3177 3177 3176
3148 3148 3150 3153 3155 3156 3158 3159 3160 3161 3162 3163 3164 3164 3164 3164 3164 3164 3164 3163 3163 3163 3163 3162 3160 3159 3161 3163 3164 3166 3166 3165 3166 3167 3168 3169 3169 3169 3170 3171 3171 3172 3172 3172 3172 3172 3172 3172 3173 3173 3172 3172 3173 3173 3173 3173 3173 3173 3172 3172 3173 3172 3172 3172 3172 3172 3172 3172 3173 3173 3173 3173 3173 3174 3174 3175 3175 3174 3174 3174 3174 3174 3174 3174 3174 3174
3146 3148 3150 3153 3154 3155 3157 3158 3158 3159 3160 3161 3162 3163 3163 3163 3163 3163 3162 3162 3162 3162 3161 3160 3158 3157 3158 3160 3161 3163 3163 3164 3165 3165 3165 3166 3166 3167 3168 3169 3169 3169 3170 3170 3170 3169 3169 3169 3170 3170 3170 3171 3171 3170 3170 3170 3170 3170 3170 3170 3170 3170 3169 3170 3169 3169 3169 3170 3170 3170 3170 3170 3170 3170 3171 3172 3172 3172 3171 3171 3171 3171 3171 3171 3171 3171
3145 3148 3150 3151 3152 3154 3155 3156 3157 3158 3159 3160 3161 3161 3162 3162 3162 3161 3161 3161 3161 3161 3160 3159 3156 3154 3155 3157 3158 3161 3161 3161 3162 3162 3163 3164 3164 3166 3166 3167 3167 3167 3167 3167 3167 3167 3167 3167 3167 3168 3168 3168 3168 3168 3168 3168 3168 3167 3167 3167 3167 3167 3167 3167 3167 3167 3167 3167 3166 3166 3166 3166 3166 3166 3167 3168 3168 3169 3169 3169 3168 3168 3168 3168 3168 3168
3145 3147 3148 3150 3151 3152 3154 3155 3156 3157 3158 3159 3159 3160 3160 3161 3160 3160 3160 3160 3160 3160 3159 3158 3155 3151 3152 3154 3155 3158 3159 3158 3159 3160 3161 3162 3162 3163 3164 3164 3165 3164 3164 3164 3164 3165 3165 3165 3165 3165 3166 3165 3166 3166 3166 3165 3165 3165 3165 3165 3164 3164 3164 3164 3164 3164 3164 3163 3163 3163 3163 3163 3163 3163 3164 3164 3165 3166 3166 3166 3166 3165 3164 3164 3164 3164
3144 3146 3147 3149 3150 3151 3152 3154 3155 3156 3157 3157 3158 3158 3159 3159 3158 3158 3159 3159 3159 3159 3158 3158 3156 3149 3148 3151 3153 3155 3156 3157 3157 3158 3159 3160 3160 3161 3161 3162 3163 3162 3161 3161 3161 3162 3162 3162 3163 3163 3163 3163 3163 3163 3163 3163 3163 3163 3163 3162 3162 3162 3162 3161 3161 3161 3161 3160 3160 3160 3160 3160 3160 3160 3160 3161 3162 3162 3163 3163 3163 3162 3161 3161 3161 3161
3142 3144 3146 3148 3149 3150 3151 3152 3153 3154 3155 3156 3156 3156 3157 3157 3157 3157 3158 3159 3158 3157 3156 3158 3157 3151 3144 3146 3150 3152 3153 3154 3155 3156 3157 3157 3158 3159 3159 3160 3160 3159 3159 3158 3158 3159 3159 3160 3160 3161 3161 3161 3161 3161 3161 3161 3161 3161 3160 3160 3160 3159 3159 3159 3158 3158 3158 3158 3157 3157 3157 3157 3157 3157 3157 3158 3158 3158 3159 3159 3159 3159 3159 3158 3157 3158
3140 3142 3144 3146 3147 3148 3149 3151 3152 3153 3154 3154 3154 3155 3156 3156 3157 3157 3157 3157 3157 3156 3155 3156 3157 3155 3145 3141 3146 3149 3149 3151 3153 3154 3155 3155 3156 3156 3157 3157 3157 3156 3156 3156 3156 3156 3156 3157 3157 3158 3158 3158 3158 3158 3158 3159 3159 3159 3158 3158 3157 3157 3157 3156 3156 3156 3155 3155 3155 3155 3154 3154 3154 3154 3154 3154 3154 3154 3155 3155 3155 3155 3155 3155 3154 3154
3139 3141 3143 3144 3145 3146 3147 3149 3150 3151 3152 3152 3153 3154 3155 3156 3156 3156 3156 3156 3156 3155 3153 3153 3155 3155 3147 3140 3143 3146 3146 3148 3149 3151 3152 3152 3153 3153 3154 3154 3154 3154 3154 3153 3153 3153 3154 3154 3155 3155 3155 3155 3156 3156 3156 3156 3156 3156 3156 3156 3155 3155 3154 3154 3154 3153 3153 3152 3152 3152 3152 3151 3151 3151 3151 3151 3150 3150 3150 3151 3151 3151 3151 3151 3150 3150
3137 3139 3141 3142 3144 3145 3146 3148 3149 3150 3151 3151 3152 3153 3154 3155 3154 3155 3155 3155 3156 3153 3150 3151 3154 3153 3145 3139 3141 3143 3144 3146 3147 3148 3149 3149 3150 3151 3151 3152 3152 3152 3152 3151 3151 3151 3151 3152 3152 3153 3153 3153 3153 3154 3154 3154 3154 3154 3153 3153 3152 3152 3152 3152 3151 3151 3150 3150 3149 3149 3149 3149 3149 3148 3148 3148 3147 3146 3146 3147 3147 3147 3148 3147 3146 3145
3135 3138 3139 3140 3142 3143 3145 3146 3147 3149 3149 3150 3151 3152 3153 3154 3154 3155 3154 3154 3155 3150 3146 3149 3152 3151 3145 3138 3138 3141 3143 3145 3146 3146 3146 3147 3148 3149 3150 3150 3150 3150 3150 3150 3150 3149 3149 3149 3150 3151 3151 3151 3151 3151 3152 3151 3152 3151 3151 3150 3150 3149 3149 3149 3149 3148 3147 3147 3146 3146 3146 3146 3146 3145 3145 3145 3144 3144 3143 3143 3143 3143 3143 3143 3142 3141
3133 3135 3137 3138 3140 3141 3142 3143 3145 3146 3147 3148 3149 3151 3153 3153 3154 3154 3153 3154 3154 3147 3145 3148 3150 3150 3142 3135 3137 3141 3142 3143 3144 3145 3145 3145 3146 3148 3149 3148 3148 3149 3148 3148 3148 3147 3147 3147 3147 3148 3149 3149 3149 3149 3149 3149 3149 3148 3148 3147 3147 3147 3147 3146 3146 3145 3144 3144 3143 3143 3143 3143 3143 3143 3142 3142 3142 3141 3140 3140 3139 3139 3139 3138 3138 3137
3131 3133 3134 3136 3137 3138 3139 3141 3143 3144 3145 3146 3148 3150 3152 3153 3154 3153 3151 3153 3150 3146 3145 3147 3149 3145 3132 3129 3135 3139 3140 3142 3143 3143 3143 3143 3144 3146 3147 3146 3146 3147 3147 3147 3146 3145 3145 3145 3145 3146 3146 3146 3146 3146 3146 3146 3146 3145 3145 3145 3144 3144 3143 3143 3143 3142 3142 3141 3141 3141 3141 3141 3140 3140 3139 3139 3139 3138 3137 3137 3136 3135 3135 3134 3134 3133
3129 3130 3130 3131 3133 3134 3136 3138 3140 3142 3143 3145 3145 3147 3150 3152 3154 3152 3151 3151 3147 3144 3144 3146 3147 3139 3127 3127 3132 3133 3137 3140 3140 3141 3142 3142 3143 3145 3145 3145 3144 3145 3145 3145 3144 3144 3143 3143 3143 3143 3144 3143 3143 3143 3143 3143 3143 3142 3142 3142 3141 3141 3140 3140 3140 3139 3139 3138 3138 3138 3138 3138 3137 3137 3136 3136 3135 3135 3134 3134 3133 3132 3132 3131 3130 3129
3125 3125 3125 3127 3130 3132 3133 3135 3138 3140 3142 3142 3143 3145 3145 3145 3147 3147 3147 3147 3144 3143 3143 3145 3143 3133 3126 3128 3129 3130 3134 3137 3138 3140 3140 3141 3142 3143 3143 3143 3142 3143 3143 3143 3142 3142 3141 3141 3141 3141 3141 3141 3141 3141 3141 3140 3140 3139 3139 3139 3138 3137 3137 3137 3137 3137 3136 3136 3135 3135 3135 3135 3134 3134 3133 3132 3132 3131 3131 3130 3130 3129 3129 3128 3127 3125
3121 3121 3122 3126 3128 3130 3132 3134 3136 3138 3139 3140 3141 3142 3140 3140 3141 3143 3144 3143 3142 3143 3141 3140 3135 3127 3125 3127 3128 3129 3132 3134 3137 3138 3139 3140 3141 3141 3141 3140 3140 3140 3141 3141 3140 3139 3139 3139 3139 3139 3139 3139 3138 3138 3138 3137 3137 3136 3136 3135 3135 3134 3134 3134 3134 3134 3133 3133 3132 3132 3132 3132 3131 3131 3130 3129 3129 3128 3128 3127 3127 3126 3125 3124 3123 3122
3118 3119 3121 3124 3125 3127 3129 3131 3133 3134 3135 3137 3136 3135 3136 3138 3140 3142 3142 3141 3143 3142 3137 3133 3128 3123 3124 3124 3124 3127 3129 3130 3133 3134 3136 3138 3139 3140 3139 3137 3137 3138 3138 3138 3137 3137 3137 3137 3137 3136 3136 3136 3136 3136 3135 3134 3134 3134 3133 3132 3131 3131 3131 3131 3131 3131 3131 3130 3130 3129 3129 3129 3128 3128 3127 3126 3126 3125 3124 3124 3123 3123 3122 3121 3120 3119
3116 3118 3119 3120 3122 3124 3126 3128 3129 3130 3132 3132 3131 3131 3135 3138 3139 3140 3141 3140 3142 3142 3134 3128 3124 3122 3124 3123 3121 3124 3126 3127 3129 3132 3134 3136 3137 3137 3136 3135 3135 3135 3135 3135 3134 3135 3135 3135 3135 3134 3134 3134 3133 3133 3132 3131 3131 3131 3130 3129 3128 3128 3127 3128 3128 3128 3128 3127 3127 3126 3126 3126 3126 3125 3125 3124 3123 3122 3121 3120 3119 3119 3118 3117 3116 3115
3114 3116 3116 3117 3119 3121 3123 3125 3125 3126 3127 3127 3128 3131 3133 3134 3135 3137 3139 3138 3140 3141 3133 3125 3122 3121 3119 3118 3119 3122 3124 3125 3127 3129 3131 3133 3133 3132 3132 3133 3133 3132 3132 3132 3132 3132 3132 3132 3132 3132 3132 3131 3131 3130 3129 3128 3128 3128 3127 3126 3125 3125 3124 3124 3125 3125 3124 3124 3123 3123 3123 3123 3123 3122 3122 3121 3120 3119 3118 3117 3116 3115 3114 3113 3112 3111
3112 3113 3113 3114 3116 3118 3119 3119 3119 3119 3122 3125 3127 3129 3130 3131 3132 3133 3134 3134 3135 3138 3133 3125 3121 3116 3111 3114 3118 3120 3121 3122 3124 3125 3127 3128 3128 3129 3130 3131 3131 3130 3130 3130 3130 3130 3129 3129 3129 3129 3129 3128 3127 3126 3125 3125 3125 3124 3124 3123 3122 3122 3121 3122 3122 3121 3121 3120 3120 3121 3120 3120 3120 3119 3118 3117 3116 3115 3114 3113 3112 3111 3110 3109 3108 3107
3110 3110 3110 3111 3113 3114 3113 3113 3114 3116 3119 3121 3123 3126 3126 3127 3129 3129 3131 3130 3131 3133 3132 3128 3121 3109 3107 3114 3117 3117 3118 3119 3120 3122 3123 3125 3126 3126 3127 3128 3128 3128 3128 3128 3129 3129 3128 3127 3126 3126 3125 3125 3124 3123 3122 3122 3122 3122 3121 3120 3119 3118 3118 3119 3118 3118 3117 3117 3117 3117 3117 3116 3116 3115 3114 3113 3112 3111 3111 3110 3108 3107 3106 3105 3104 3103
3106 3106 3107 3108 3108 3108 3109 3112 3114 3116 3117 3117 3118 3120 3120 3122 3125 3126 3127 3126 3128 3129 3128 3129 3121 3104 3103 3114 3115 3115 3118 3118 3119 3121 3121 3123 3123 3124 3125 3125 3125 3125 3126 3127 3127 3127 3126 3125 3124 3124 3123 3122 3121 3120 3120 3120 3119 3119 3118 3117 3116 3115 3115 3115 3115 3114 3114 3113 3113 3113 3112 3112 3111 3110 3109 3108 3107 3106 3106 3105 3104 3103 3102 3101 3100 3098
3103 3104 3104 3104 3104 3105 3108 3111 3113 3113 3115 3115 3115 3115 3116 3118 3119 3121 3122 3122 3125 3127 3124 3128 3122 3101 3098 3110 3112 3113 3116 3117 3119 3120 3120 3121 3122 3122 3124 3124 3124 3124 3124 3125 3124 3124 3124 3123 3122 3121 3120 3120 3119 3118 3118 3117 3116 3115 3114 3113 3112 3112 3112 3111 3111 3110 3109 3109 3109 3108 3108 3107 3106 3105 3104 3103 3102 3101 3100 3099 3099 3099 3098 3097 3096 3094
3100 3101 3101 3101 3102 3104 3106 3108 3109 3110 3112 3111 3111 3112 3113 3115 3115 3117 3120 3120 3122 3122 3121 3125 3120 3099 3095 3106 3109 3111 3114 3115 3117 3118 3119 3120 3120 3120 3121 3121 3122 3122 3121 3122 3121 3121 3120 3119 3118 3118 3118 3117 3116 3115 3115 3113 3113 3112 3110 3109 3108 3108 3108 3107 3106 3106 3105 3105 3104 3104 3103 3102 3101 3100 3099 3098 3097 3097 3096 3095 3094 3094 3094 3093 3092 3090
3095 3096 3097 3099 3101 3102 3102 3103 3104 3105 3106 3106 3107 3109 3110 3112 3115 3116 3118 3119 3118 3118 3117 3119 3113 3098 3095 3102 3106 3108 3111 3112 3114 3115 3116 3116 3116 3117 3117 3117 3118 3117 3117 3117 3117 3116 3115 3114 3114 3114 3114 3113 3112 3111 3110 3109 3109 3107 3106 3106 3105 3104 3104 3103 3102 3101 3100 3100 3099 3099 3099 3097 3096 3095 3094 3094 3093 3092 3091 3090 3090 3090 3089 3088 3087 3086
3091 3091 3092 3093 3095 3095 3095 3096 3096 3098 3102 3102 3103 3106 3107 3109 3112 3112 3115 3116 3114 3112 3112 3111 3105 3096 3094 3100 3103 3105 3107 3108 3110 3111 3112 3112 3112 3113 3113 3112 3113 3113 3113 3112 3112 3111 3111 3110 3110 3110 3110 3109 3107 3106 3105 3104 3104 3103 3102 3101 3101 3101 3101 3099 3098 3097 3096 3095 3094 3094 3094 3092 3091 3090 3089 3088 3088 3087 3086 3085 3085 3084 3084 3083 3082 3081
3087 3088 3088 3088 3088 3089 3089 3091 3093 3095 3097 3098 3099 3101 3104 3105 3107 3109 3111 3109 3106 3107 3105 3103 3102 3096 3092 3096 3100 3102 3104 3105 3107 3108 3109 3109 3108 3108 3108 3108 3108 3109 3108 3108 3107 3107 3106 3106 3106 3105 3104 3103 3102 3101 3100 3099 3098 3097 3096 3096 3096 3097 3097 3096 3094 3093 3092 3090 3089 3089 3089 3087 3086 3085 3084 3083 3082 3082 3081 3080 3079 3079 3078 3078 3077 3076
3084 3084 3085 3086 3086 3088 3089 3090 3092 3093 3093 3095 3096 3098 3100 3101 3103 3104 3103 3100 3102 3104 3098 3096 3100 3097 3090 3090 3095 3099 3101 3102 3103 3104 3104 3104 3104 3104 3104 3104 3104 3104 3104 3104 3103 3102 3102 3101 3100 3099 3098 3097 3096 3095 3094 3093 3093 3092 3091 3090 3090 3091 3091 3091 3090 3088 3087 3086 3085 3085 3084 3083 3081 3080 3079 3078 3077 3077 3076 3075 3074 3073 3072 3072 3072 3071
3081 3081 3082 3084 3084 3086 3088 3089 3090 3090 3090 3091 3093 3094 3096 3097 3098 3097 3096 3096 3098 3097 3092 3092 3096 3095 3090 3087 3089 3094 3098 3098 3099 3099 3099 3099 3099 3100 3100 3100 3100 3099 3098 3098 3098 3098 3097 3096 3094 3093 3092 3091 3090 3089 3088 3087 3086 3086 3085 3085 3085 3084 3084 3084 3083 3082 3082 3081 3080 3080 3080 3078 3077 3075 3074 3073 3072 3071 3071 3070 3068 3067 3067 3067 3066 3066
3078 3078 3080 3082 3082 3083 3085 3087 3087 3087 3088 3088 3089 3090 3092 3093 3093 3092 3091 3092 3093 3092 3090 3092 3092 3088 3087 3086 3086 3090 3094 3095 3094 3095 3094 3094 3094 3095 3096 3095 3094 3094 3093 3093 3093 3093 3093 3091 3089 3088 3087 3086 3085 3083 3082 3081 3081 3080 3080 3080 3080 3079 3079 3078 3077 3076 3076 3075 3076 3076 3075 3073 3072 3070 3069 3068 3067 3066 3065 3064 3063 3062 3061 3061 3061 3061
3074 3075 3076 3079 3080 3079 3081 3083 3084 3085 3085 3086 3087 3088 3089 3088 3088 3087 3087 3088 3090 3088 3088 3089 3086 3080 3081 3086 3087 3087 3090 3091 3091 3091 3090 3090 3090 3090 3090 3090 3089 3088 3088 3088 3088 3088 3087 3085 3084 3083 3082 3081 3079 3078 3077 3077 3077 3076 3076 3076 3075 3075 3074 3073 3072 3071 3071 3070 3071 3070 3069 3068 3067 3066 3065 3064 3062 3061 3060 3059 3057 3056 3056 3056 3056 3055
3071 3072 3073 3075 3076 3075 3075 3078 3080 3081 3082 3082 3083 3084 3083 3082 3081 3082 3083 3084 3085 3084 3085 3086 3082 3076 3078 3086 3088 3085 3084 3087 3087 3087 3086 3086 3086 3085 3084 3084 3084 3083 3083 3083 3082 3081 3080 3079 3079 3077 3076 3075 3074 3074 3073 3073 3072 3072 3071 3071 3071 3070 3069 3068 3067 3067 3067 3067 3066 3065 3064 3063 3062 3061 3060 3059 3057 3056 3054 3053 3052 3051 3051 3050 3050 3050
3067 3069 3070 3071 3072 3070 3071 3073 3075 3077 3077 3075 3074 3075 3077 3078 3078 3079 3079 3080 3080 3081 3081 3080 3078 3077 3080 3084 3084 3081 3080 3082 3083 3083 3081 3080 3080 3081 3080 3079 3079 3079 3078 3077 3076 3075 3074 3073 3072 3071 3070 3070 3069 3069 3069 3068 3067 3066 3066 3066 3066 3065 3064 3063 3062 3062 3062 3062 3061 3060 3058 3057 3056 3055 3054 3053 3052 3050 3049 3048 3047 3046 3045 3045 3044 3044
3063 3065 3066 3068 3068 3067 3068 3070 3072 3072 3070 3066 3067 3070 3072 3073 3074 3074 3073 3074 3077 3078 3077 3076 3077 3079 3080 3079 3077 3076 3076 3078 3079 3077 3076 3075 3075 3075 3075 3075 3074 3073 3073 3071 3070 3068 3067 3066 3066 3065 3065 3065 3064 3064 3064 3063 3062 3062 3062 3061 3061 3060 3059 3058 3057 3056 3056 3056 3055 3053 3052 3051 3049 3049 3048 3047 3046 3045 3044 3043 3042 3041 3040 3039 3038 3038
3058 3061 3063 3064 3064 3065 3065 3067 3067 3064 3061 3061 3064 3067 3068 3068 3068 3069 3068 3069 3072 3073 3073 3073 3074 3075 3075 3075 3074 3073 3072 3073 3074 3072 3071 3069 3070 3071 3071 3070 3068 3067 3066 3065 3064 3063 3062 3062 3061 3061 3061 3061 3060 3060 3060 3059 3059 3058 3057 3057 3056 3055 3054 3053 3052 3051 3050 3050 3048 3047 3046 3045 3044 3043 3042 3041 3040 3039 3038 3038 3037 3036 3035 3034 3033 3032
3055 3057 3058 3059 3061 3061 3062 3062 3060 3057 3056 3059 3061 3061 3061 3062 3063 3063 3063 3064 3067 3068 3068 3069 3070 3071 3072 3072 3070 3070 3069 3068 3068 3067 3064 3062 3065 3068 3067 3064 3061 3061 3061 3060 3059 3059 3059 3059 3058 3057 3057 3057 3057 3056 3055 3055 3054 3053 3053 3052 3051 3050 3049 3048 3047 3046 3045 3044 3042 3041 3040 3039 3038 3037 3036 3035 3034 3033 3033 3032 3031 3030 3029 3028 3027 3026
3053 3053 3054 3055 3056 3057 3057 3056 3055 3055 3055 3055 3055 3055 3056 3056 3058 3060 3059 3060 3063 3064 3063 3064 3065 3066 3067 3067 3066 3066 3065 3062 3062 3061 3057 3057 3062 3064 3062 3059 3057 3056 3057 3056 3055 3055 3055 3054 3054 3053 3053 3052 3052 3051 3050 3050 3049 3048 3047 3046 3045 3044 3043 3042 3041 3040 3039 3038 3036 3035 3035 3033 3032 3031 3030 3029 3028 3027 3027 3026 3025 3024 3023 3022 3021 3020
3049 3050 3052 3053 3053 3053 3054 3053 3052 3052 3050 3048 3049 3052 3053 3054 3056 3058 3057 3056 3058 3058 3057 3058 3059 3059 3060 3061 3060 3060 3059 3057 3057 3055 3053 3054 3058 3058 3057 3056 3054 3052 3052 3051 3050 3051 3050 3050 3050 3049 3048 3047 3047 3046 3045 3044 3043 3042 3042 3041 3040 3038 3037 3037 3036 3034 3033 3032 3031 3029 3029 3028 3027 3026 3025 3024 3023 3022 3021 3020 3019 3018 3017 3016 3015 3014
3045 3047 3049 3050 3049 3050 3050 3048 3047 3046 3044 3044 3047 3050 3051 3051 3053 3054 3053 3052 3052 3052 3051 3052 3052 3052 3054 3055 3054 3055 3055 3053 3052 3052 3050 3050 3053 3052 3051 3051 3050 3049 3048 3047 3046 3045 3045 3044 3044 3043 3042 3042 3041 3040 3040 3038 3037 3036 3035 3035 3034 3032 3032 3031 3029 3028 3027 3026 3025 3024 3023 3022 3021 3021 3019 3018 3017 3016 3015 3014 3013 3012 3011 3010 3009 3008
3040 3042 3044 3044 3044 3045 3045 3044 3043 3041 3041 3042 3045 3046 3047 3047 3049 3050 3048 3046 3046 3047 3046 3046 3046 3047 3049 3049 3050 3051 3051 3048 3048 3047 3045 3045 3047 3047 3046 3045 3045 3044 3043 3043 3042 3041 3040 3039 3038 3038 3037 3036 3035 3034 3033 3032 3031 3030 3029 3028 3027 3026 3025 3024 3023 3022 3021 3020 3019 3018 3018 3017 3016 3015 3014 3013 3012 3011 3010 3009 3007 3006 3005 3004 3003 3002
3035 3036 3037 3038 3039 3041 3041 3040 3038 3036 3036 3040 3042 3042 3043 3044 3044 3043 3042 3042 3044 3044 3043 3043 3042 3043 3044 3044 3044 3045 3045 3044 3043 3042 3041 3040 3042 3042 3042 3041 3040 3039 3038 3038 3037 3036 3035 3035 3034 3032 3031 3030 3029 3028 3027 3026 3025 3024 3023 3022 3021 3020 3019 3018 3017 3016 3015 3015 3014 3013 3012 3011 3010 3009 3008 3007 3006 3005 3004 3003 3001 3000 2999 2998 2996 2995
3030 3031 3032 3034 3035 3036 3036 3036 3035 3033 3032 3036 3038 3037 3037 3038 3037 3036 3037 3040 3041 3041 3041 3040 3038 3039 3040 3040 3040 3040 3040 3040 3039 3038 3038 3037 3037 3037 3038 3037 3036 3035 3035 3034 3033 3031 3030 3029 3028 3027 3026 3025 3023 3022 3021 3020 3019 3018 3017 3016 3016 3015 3013 3012 3012 3011 3010 3009 3008 3007 3007 3006 3004 3003 3002 3001 3000 2999 2997 2996 2995 2994 2992 2991 2990 2989
3025 3027 3027 3028 3029 3031 3032 3033 3032 3029 3029 3031 3033 3032 3032 3032 3031 3032 3034 3035 3036 3036 3037 3036 3033 3033 3035 3036 3036 3036 3035 3035 3035 3034 3034 3034 3033 3033 3033 3032 3032 3031 3029 3029 3028 3026 3024 3023 3023 3022 3021 3020 3018 3016 3015 3014 3013 3012 3012 3011 3010 3009 3008 3007 3006 3005 3004 3003 3002 3001 3001 3000 2999 2997 2996 2995 2994 2992 2991 2990 2989 2987 2986 2985 2984 2983
3021 3021 3021 3021 3023 3024 3025 3025 3025 3025 3026 3028 3028 3028 3027 3027 3028 3029 3029 3030 3030 3031 3032 3031 3030 3029 3029 3030 3031 3032 3031 3031 3031 3030 3030 3030 3029 3029 3028 3028 3027 3025 3024 3023 3021 3020 3018 3017 3016 3016 3015 3014 3012 3011 3009 3007 3006 3006 3006 3005 3004 3003 3002 3001 3000 2998 2998 2997 2996 2995 2994 2993 2992 2991 2990 2989 2987 2986 2985 2984 2983 2981 2980 2979 2978 2977
3015 3016 3017 3018 3019 3020 3020 3020 3021 3023 3025 3025 3025 3024 3024 3024 3024 3024 3025 3025 3026 3027 3027 3027 3026 3026 3025 3024 3025 3025 3026 3026 3026 3026 3025 3024 3024 3024 3023 3022 3021 3020 3018 3017 3016 3014 3013 3011 3010 3010 3009 3009 3007 3005 3004 3002 3000 3000 2999 2998 2998 2997 2996 2995 2993 2992 2991 2990 2989 2989 2988 2987 2986 2984 2983 2982 2981 2980 2979 2978 2977 2976 2975 2974 2973 2972
3012 3013 3014 3015 3016 3017 3017 3018 3019 3021 3021 3022 3022 3021 3020 3020 3020 3021 3021 3021 3022 3022 3023 3023 3022 3022 3021 3020 3020 3020 3021 3021 3020 3020 3019 3018 3018 3018 3017 3017 3017 3016 3014 3013 3011 3009 3007 3006 3005 3004 3003 3003 3002 2999 2998 2997 2995 2994 2993 2992 2991 2990 2989 2988 2987 2986 2985 2984 2983 2982 2981 2980 2979 2978 2977 2976 2975 2974 2973 2972 2971 2970 2969 2968 2967 2967
3008 3009 3010 3011 3012 3012 3013 3014 3015 3016 3017 3018 3018 3018 3017 3017 3016 3016 3017 3017 3018 3019 3019 3019 3018 3018 3017 3016 3016 3015 3016 3015 3014 3013 3013 3013 3012 3012 3012 3011 3011 3011 3010 3008 3007 3005 3003 3001 3000 2999 2998 2997 2996 2994 2992 2991 2990 2989 2988 2987 2986 2985 2984 2982 2981 2980 2979 2978 2977 2976 2975 2974 2973 2972 2971 2970 2969 2968 2967 2966 2965 2964 2963 2963 2962 2962
3003 3004 3005 3006 3006 3007 3007 3010 3012 3012 3011 3014 3015 3015 3015 3014 3013 3012 3012 3012 3013 3014 3014 3014 3014 3014 3013 3013 3012 3011 3011 3011 3009 3008 3008 3008 3007 3007 3006 3005 3004 3004 3004 3003 3002 3000 2999 2997 2995 2994 2992 2991 2990 2988 2987 2986 2984 2983 2982 2981 2980 2979 2978 2977 2976 2975 2973 2972 2971 2970 2969 2968 2967 2966 2965 2964 2963 2963 2962 2961 2960 2959 2958 2957 2957 2957
2999 2999 3000 3001 3002 3002 3003 3006 3008 3007 3008 3011 3012 3012 3012 3010 3008 3008 3007 3007 3008 3008 3008 3008 3008 3009 3009 3009 3008 3006 3006 3006 3005 3003 3002 3002 3002 3001 3000 2999 2998 2998 2997 2997 2996 2995 2993 2992 2990 2988 2987 2986 2985 2983 2982 2980 2979 2977 2976 2975 2974 2973 2972 2971 2970 2969 2968 2967 2965 2964 2963 2962 2961 2960 2960 2959 2958 2957 2956 2955 2954 2954 2953 2953 2952 2952
2994 2994 2996 2996 2996 2997 3000 3002 3002 3002 3003 3006 3007 3007 3007 3005 3003 3003 3003 3003 3003 3003 3002 3002 3003 3003 3004 3003 3002 3001 3000 3000 3000 2998 2997 2996 2996 2995 2994 2993 2992 2991 2991 2990 2989 2988 2987 2986 2984 2982 2982 2981 2979 2977 2976 2975 2973 2972 2970 2969 2968 2967 2966 2965 2964 2963 2962 2961 2960 2959 2958 2957 2956 2955 2954 2954 2953 2952 2951 2951 2950 2950 2949 2949 2949 2949
2988 2989 2992 2992 2991 2993 2996 2997 2997 2997 2997 2999 3001 3001 3000 2999 2999 2999 2998 2998 2998 2998 2997 2997 2996 2996 2996 2996 2996 2995 2993 2992 2992 2991 2990 2990 2990 2989 2988 2987 2986 2985 2985 2984 2982 2981 2980 2979 2978 2976 2975 2975 2973 2972 2971 2970 2968 2966 2965 2963 2962 2961 2960 2959 2958 2957 2956 2955 2954 2953 2952 2951 2951 2950 2949 2949 2948 2947 2947 2947 2946 2946 2945 2945 2945 2945